Weather in Police

Poland     53°34′04″N   14°33′35″E
temp.,
°C
wind,
m/s
gust,
m/s
humid.,
%
clouds,
%
prec.,
mm/h
press.,
hPa
HPBL,
m
28 november, sun
sun2801:00+2ssw3797100 0.9 994278
04:00+2sw3696100 0.1 994503
07:00+2sw378887 0.1 995288
10:00+2sw36845 0.0 997385
13:00+4ssw247295 0.0 997530
16:00+2s2283100 0.0 99724
19:00+1wsw118899 0.0 99715
22:000nw119163 0.0 99812
29 november, mon
mon2901:000w119099 0.0 99813
04:00−1w229048 0.0 99833
07:00−1w258910 0.0 999116
10:00+2wnw4980100 0.0 1000423
13:00+1wnw4896100 1.6 1000287
16:00+4nnw51074100 0.2 1002620
19:00+3nnw5107999 0.5 1004739
22:00+1wnw4979100 0.3 1005266
30 november, tue
tue3001:000w41083100 0.3 1006334
04:00−1wsw41097100 0.1 1006462
07:00−1sw41188100 0.1 1003406
10:00+1ssw71697100 2.3 997988
13:00+3wsw91796100 4.0 9931011
16:00+5w81778100 0.3 9931428
19:00+4wnw91772100 0.3 9951471
22:00+3wnw7157376 0.0 9971209
1 december, wed
wed101:00+2w41083100 0.0 999388
04:00+1ssw2493100 0.0 99879
07:00+4sse51398100 2.8 994549
10:00+8sw81792100 4.8 9911419
13:00+7sw91985100 5.9 9891363
16:00+7sw102080100 0.1 9861786
19:00+7sw112080100 0.2 9861456
22:00+7wsw101972100 0.3 9871483
2 december, thu
thu201:00+6wsw91677100 0.3 9881363
04:00+4w51196100 0.5 9891186
07:00+2w3797100 1.4 990307
10:00+2w2599100 1.3 992214
13:00+2w4791100 1.7 992451
16:00+2w378880 0.0 994290
19:00+1w498185 0.1 995357
22:00−1wsw3790100 0.0 997222